2021-002G (47315 NORAD) Tracking and Keplerian Element Data

This shows tracking and keplerian element data for the satellite.

Feedback or suggestion? Click here.




ElementValue
Catalog47315
Name2021-002G
Epoch Orbit1271
Epoch Day101.51221463
Epoch Year2021
RAAN181.0202
Inclination60.6831
Eccentricity0.0021746
Argument of Perigee357.2875
Mean Anonmoly2.8091
Mean Motion15.22929719
Decay Rate1.035E-05
L11 47315U 21002G 21101.51221463 .00001035 00000-0 55243-4 0 9996
L22 47315 60.6831 181.0202 0021746 357.2875 2.8091 15.22929719 12715

Live tracking and technical data element details for 2021-002G (NORAD 47315). 2021-002G can be tracked NOW for your location showing map with azimuth and elevation plus other details from your city location.

Track the satellite on the map from your city or location and see movement details for azimuth, elevation, latitude, longitude, range, height, and movement on the map or in text.







IsCatalogInMostPopularTable: catalog: 47315, numindb: 20
Update: records affected: 1



GetName: 47315 2021-002G

Hit Count: updated at: Tue, 13 Apr 2021 04:36:24 GMT